EHI
0 0 0 0 0 0 0 0 0 0 1 3 3 3 3 2 1 0 0 0 0 0 0 0 0 0 0 0 0 0 0 0 0 0 0 0 0 0 0 0 0 0 0
0 0 0 0 0 0 0 0 0 1 2 3 3 3 3 2 1 0 0 0 0 0 0 0 0 0 0 0 0 0 0 0 0 0 0 0 0 0 0 0 0 0 0
0 0 0 0 0 0 0 0 0 1 2 3 3 3 3 2 1 0 0 0 0 0 0 0 0 0 0 0 0 0 0 0 0 0 0 0 0 0 0 0 0 0 0
0 0 0 0 0 0 0 0 0 1 2 3 3 3 3 2 1 0 0 0 0 0 0 0 0 0 0 0 0 0 0 0 0 0 0 0 0 0 0 0 0 0 0
0 0 0 0 0 0 0 0 0 0 1 3 3 3 3 2 1 0 0 0 0 0 0 0 0 0 0 0 0 0 0 0 0 0 0 0 0 0 0 0 0 0 0
0 0 0 0 0 0 0 0 0 0 1 2 2 2 2 1 0 0 0 0 0 0 0 0 0 0 0 0 0 0 0 0 0 0 0 0 0 0 0 0 0 0 0
0 0 0 0 0 0 0 0 0 0 0 1 1 1 1 0 0 0 0 0 0 0 0 0 0 0 0 0 0 0 0 0 0 0 0 0 0 0 0 0 0 0 0
0 0 0 0 0 0 0 0 0 0 0 0 0 0 0 0 0 0 0 0 0 0 0 0 0 0 0 0 0 0 0 0 0 0 0 0 0 0 0 0 0 0 0
0 0 0 0 0 0 0 0 0 0 0 0 0 0 0 0 0 0 0 0 0 0 0 0 0 0 0 0 0 0 0 0 0 0 0 0 0 0 0 0 0 0 0
0 0 0 0 0 0 0 0 0 0 0 0 0 0 0 0 0 0 0 0 0 0 0 0 0 0 0 0 0 0 0 0 0 0 0 0 0 0 0 0 0 0 0
0 0 0 0 0 0 0 0 0 0 0 0 0 0 0 0 0 0 0 0 0 0 0 0 0 0 0 0 0 0 0 0 0 0 0 0 0 0 0 0 0 0 0
0 0 0 0 0 0 0 0 0 0 0 0 0 0 0 0 0 0 0 0 0 0 0 0 0 0 0 0 0 0 0 0 0 0 0 0 0 0 0 0 0 0 0
0 0 0 0 0 0 0 0 0 0 0 0 0 0 0 0 0 0 0 0 0 0 0 0 0 0 0 0 0 0 0 0 0 0 0 0 0 0 0 0 0 0 0
0 0 0 0 0 0 0 0 0 0 0 0 0 0 0 0 0 0 0 0 0 0 0 0 0 0 0 0 0 0 0 0 0 0 0 0 0 0 0 0 0 0 0
0 0 0 0 0 0 0 0 0 0 0 0 0 0 0 0 0 0 0 0 0 0 0 0 0 0 0 0 0 0 0 0 0 0 0 0 0 0 0 0 0 0 0
0 0 0 0 0 0 0 0 0 0 0 0 0 0 0 0 0 0 0 0 0 0 0 0 0 0 0 0 0 0 0 0 0 0 0 0 0 0 0 0 0 0 0
0 0 0 0 0 0 0 0 0 0 0 0 0 0 0 0 0 0 0 0 0 0 0 0 0 0 0 0 0 0 0 0 0 0 0 0 0 0 0 0 0 0 0
0 0 0 0 0 0 0 0 0 0 0 0 0 0 0 0 0 0 0 0 0 0 0 0 0 0 0 0 0 0 0 0 0 0 0 0 0 0 0 0 0 0 0
0 0 0 0 0 0 0 0 0 0 0 0 0 0 0 0 0 0 0 0 0 0 0 0 0 0 0 0 0 0 0 0 0 0 0 0 0 0 0 0 0 0 0
0 0 0 0 0 0 0 0 0 0 0 0 0 0 0 0 0 0 0 0 0 0 0 0 0 0 0 0 0 0 0 0 0 0 0 0 0 0 0 0 0 0 0
0 0 0 0 0 0 0 0 0 0 0 0 0 0 0 0 0 0 0 0 0 0 0 0 0 0 0 0 0 0 0 0 0 0 0 0 0 0 0 0 0 0 0
0 0 0 0 0 0 0 0 0 0 0 0 0 0 0 0 0 0 0 0 0 0 0 0 0 0 0 0 0 0 0 0 0 0 0 0 0 0 0 0 0 0 0
0 0 0 0 0 0 0 0 0 0 0 0 0 0 0 0 0 0 0 0 0 0 0 0 0 0 0 0 0 0 0 0 0 0 0 0 0 0 0 0 0 0 0
0 0 0 0 0 0 0 0 0 0 0 0 0 0 0 0 0 0 0 0 0 0 0 0 0 0 0 0 0 0 0 0 0 0 0 0 0 0 0 0 0 0 0
0 0 0 0 0 0 0 0 0 0 0 0 0 0 0 0 0 0 0 0 0 0 0 0 0 0 0 0 0 0 0 0 0 0 0 0 0 0 0 0 0 0 0
0 0 0 0 0 0 0 0 0 0 0 0 0 0 0 0 0 0 0 0 0 0 0 0 0 0 0 0 0 0 0 0 0 0 0 0 0 0 0 0 0 0 0
Wind_Speed
8 7 6 5 4 4 5 5 5 5 4 3 4 5 6 6 6 7 10 11 11 11 10 9 11 10 10 12 12 9 10 8 7 6 4 2 1 3 4 4 4 5 5
9 7 6 5 5 5 6 6 5 5 6 5 5 5 6 6 7 7 9 11 12 12 10 11 11 11 10 13 13 11 8 6 8 8 7 4 1 1 2 3 5 5 4
8 8 7 6 5 5 6 6 6 6 7 6 4 4 4 4 5 7 8 10 12 12 12 12 11 12 12 12 14 13 10 10 8 8 7 7 6 3 2 3 4 5 4
7 7 7 7 6 7 7 6 6 6 6 5 5 7 6 7 7 6 6 9 11 12 12 12 13 13 11 12 14 12 10 12 11 7 3 3 6 6 3 2 3 5 5
7 7 8 7 7 7 7 6 6 5 5 5 6 8 7 6 5 5 7 8 9 11 12 12 13 13 12 13 14 12 13 10 11 9 5 4 3 3 5 5 4 2 3
7 8 8 8 8 7 6 6 6 6 5 6 6 8 8 6 6 7 7 8 7 8 12 13 13 13 12 14 14 13 14 11 10 8 6 6 6 5 4 5 5 4 3
8 9 10 10 9 9 8 8 7 7 6 5 6 7 7 7 8 8 8 8 7 8 12 12 12 11 11 12 12 12 13 14 14 11 7 6 5 5 4 5 4 3 1
9 9 9 10 10 10 9 8 7 7 6 5 5 6 6 5 6 7 6 8 8 8 11 12 12 12 13 13 12 11 11 11 12 11 9 6 5 5 5 5 6 4 1
10 10 9 9 9 9 8 8 8 6 5 5 4 5 6 6 6 7 6 6 7 7 11 12 13 12 13 14 14 11 12 11 11 10 10 7 5 5 4 5 6 7 5
10 10 10 9 9 8 8 8 7 6 6 4 4 4 5 6 6 6 7 6 8 9 11 12 13 13 13 13 13 11 12 12 10 8 10 8 5 6 5 5 4 4 5
11 10 10 10 9 8 8 8 8 6 6 5 4 5 4 4 5 6 8 7 8 10 12 13 13 13 14 14 13 12 13 14 12 10 10 10 8 7 6 5 5 4 4
11 10 10 10 9 9 8 8 7 6 6 5 5 5 4 4 5 6 7 7 9 10 11 12 13 13 14 14 15 14 14 15 14 13 11 10 8 9 7 6 6 5 4
11 10 9 9 9 9 9 9 7 6 6 5 5 5 5 5 5 6 6 7 9 9 9 11 13 13 13 14 14 14 14 14 14 13 12 11 11 10 7 7 6 5 4
11 10 10 9 9 8 9 9 8 6 6 5 5 5 5 6 6 6 6 6 7 9 10 11 12 12 12 12 13 13 13 13 12 11 11 11 12 12 10 8 7 6 5
11 11 10 9 9 9 9 9 8 7 6 6 6 6 6 6 6 5 5 5 6 8 9 10 10 11 11 11 13 13 13 13 12 11 10 10 11 13 11 8 8 8 6
11 11 10 10 10 10 9 9 9 8 6 6 6 6 6 5 5 4 3 4 5 6 8 9 10 11 10 13 16 14 13 13 13 12 10 9 11 12 14 14 13 12 10
11 10 10 9 10 9 9 9 9 8 6 6 6 6 6 5 4 3 2 3 3 4 6 8 9 11 12 16 17 17 13 12 12 12 11 8 8 11 9 11 11 10 10
10 10 9 9 9 9 9 8 8 7 6 6 6 6 6 5 4 3 2 3 3 3 4 6 7 9 11 16 18 17 13 11 12 12 13 12 11 10 11 10 8 6 5
9 9 9 8 9 9 8 8 8 7 6 6 6 5 6 5 4 3 2 2 2 3 3 5 6 8 9 13 18 17 11 10 11 11 11 12 12 16 17 13 11 8 5
9 9 8 8 8 8 7 7 8 7 7 7 6 5 5 5 4 4 3 1 2 3 3 3 5 7 8 12 16 18 10 10 9 9 10 14 14 18 19 14 13 11 8
10 9 8 7 8 8 7 7 8 7 7 6 6 5 5 5 4 4 2 1 1 2 2 3 3 5 8 11 15 17 11 10 10 9 8 9 17 19 19 15 11 13 12
10 8 8 9 8 7 6 7 8 7 7 5 5 5 5 4 4 3 2 1 1 1 2 2 2 3 5 8 12 16 14 13 10 9 8 10 18 18 17 12 14 19 15
9 8 8 9 8 7 6 7 8 7 6 5 5 5 5 4 4 3 2 1 2 2 2 2 3 2 3 5 11 15 16 15 9 8 13 16 19 17 13 15 19 16 9
9 8 8 8 9 8 7 7 7 6 5 5 5 4 4 5 4 3 2 2 2 2 3 3 3 3 3 4 6 8 10 13 11 10 14 18 17 12 13 14 11 7 7
8 7 7 8 9 8 8 7 6 5 5 5 4 4 4 4 4 4 3 2 3 4 4 3 4 5 5 6 9 9 8 9 10 12 9 8 9 8 7 7 7 6 7
8 8 8 8 8 8 8 7 5 4 4 4 4 4 3 3 3 2 3 2 3 4 5 5 5 4 6 8 10 12 14 16 19 13 10 9 9 9 9 9 7 6 6
Wind_Direction
295 298 295 292 295 293 288 275 257 245 232 232 239 228 225 219 211 207 201 192 185 182 184 184 178 178 179 174 167 161 160 157 149 129 114 71 105 164 175 174 173 181 182
317 318 316 304 296 296 293 284 263 252 240 230 236 226 227 221 212 206 201 194 187 184 185 186 183 178 177 176 171 161 157 163 159 148 139 130 130 241 194 184 184 187 181
312 314 311 308 300 291 288 285 274 262 249 236 235 240 238 222 215 208 199 194 190 188 186 189 183 181 179 180 176 171 161 165 169 162 152 155 180 177 217 206 194 186 184
310 310 312 313 299 284 281 277 270 267 256 238 231 221 228 232 221 207 204 196 191 190 187 190 185 181 180 179 180 176 167 166 170 170 163 154 148 150 164 215 206 195 194
306 307 307 305 302 293 283 275 277 274 266 243 232 223 226 233 223 208 205 200 195 193 190 190 186 182 180 179 181 177 171 173 174 169 158 144 131 130 145 173 190 201 211
319 319 320 320 317 308 308 297 293 284 264 244 230 223 218 218 220 213 206 201 195 194 193 191 187 184 180 180 180 178 175 176 174 169 164 161 158 163 151 158 172 188 212
325 328 330 331 329 326 325 320 302 287 273 256 232 223 220 210 215 209 205 200 198 200 195 192 186 184 182 180 178 178 178 179 178 176 174 172 167 154 146 141 149 161 189
324 325 324 324 324 324 322 319 304 289 282 272 254 227 219 215 217 210 207 205 204 203 194 191 186 185 184 181 178 178 179 179 181 180 174 171 172 160 154 150 147 141 162
324 323 319 318 317 318 315 315 308 295 289 282 278 251 228 222 220 213 211 214 205 197 194 189 187 185 185 182 178 181 180 178 183 182 178 175 175 170 161 152 153 151 167
323 322 321 320 315 315 315 322 315 307 295 294 287 281 254 229 219 210 211 220 207 194 190 190 189 185 183 181 181 179 178 178 183 180 179 180 174 170 164 161 160 153 154
317 318 317 318 316 320 324 325 319 316 307 300 297 293 280 258 230 216 213 217 209 198 192 191 188 184 182 182 183 183 178 180 183 182 183 184 173 170 169 165 163 160 146
312 312 313 316 321 322 322 322 317 312 308 304 299 297 284 274 253 234 222 216 210 202 196 190 187 186 184 183 184 185 182 183 185 184 183 183 176 174 171 170 171 168 157
312 314 317 318 320 321 322 320 315 308 309 308 299 299 295 278 273 254 237 223 210 200 192 190 189 188 186 185 186 186 185 186 186 184 184 181 176 178 172 170 171 167 153
312 315 318 319 322 322 321 321 321 313 310 311 303 292 290 281 272 255 241 228 207 193 193 193 189 188 188 187 184 185 184 183 182 182 183 181 182 180 173 172 172 160 149
317 319 319 318 320 322 321 323 322 320 314 312 311 295 287 285 278 263 241 213 200 197 194 190 188 188 189 188 183 183 181 179 178 179 182 181 180 178 175 172 171 164 158
314 318 319 321 319 318 318 321 320 319 316 309 309 308 301 293 287 271 231 204 205 201 195 192 191 192 195 186 182 182 179 177 177 178 178 176 175 173 170 166 164 164 163
312 316 316 312 310 311 314 315 313 312 313 309 315 316 314 312 303 280 231 205 203 205 199 196 194 196 193 184 179 180 177 177 179 178 175 173 173 166 164 156 149 153 156
305 307 306 304 306 306 312 313 317 319 314 313 318 322 326 325 322 309 257 213 203 207 201 196 198 194 191 181 177 174 176 176 178 178 174 170 169 169 158 148 144 140 141
291 293 293 294 299 303 309 315 318 319 320 319 318 320 320 320 323 314 301 244 212 212 208 201 195 189 187 180 176 172 175 175 177 174 171 169 170 165 154 150 147 138 124
294 294 295 296 299 300 309 313 311 311 311 310 306 306 311 312 310 305 288 276 232 220 217 215 199 188 185 178 178 174 174 173 172 167 168 170 168 163 159 158 155 153 148
296 297 296 295 293 298 307 305 302 299 297 299 302 305 308 303 297 299 292 253 238 222 215 209 198 189 185 175 176 176 176 173 168 166 167 169 162 161 162 160 161 156 144
302 303 301 297 295 296 298 298 297 296 297 297 302 303 304 300 305 306 300 238 189 212 217 196 181 186 182 179 176 174 173 167 167 168 164 160 158 158 158 156 146 140 135
295 297 295 295 296 293 288 290 294 299 301 299 298 300 306 303 299 293 282 229 193 198 220 198 187 187 181 174 170 170 165 159 158 154 151 150 151 150 150 145 142 140 140
294 296 298 298 296 296 289 281 288 294 295 295 297 299 306 306 303 293 264 221 213 210 211 204 194 187 183 174 167 165 157 150 146 140 138 137 137 135 136 139 139 140 148
293 293 292 291 291 295 294 291 289 292 291 294 294 298 295 295 301 305 291 251 243 228 220 213 199 188 192 185 169 163 159 157 150 138 131 131 137 138 135 134 136 138 139
294 295 295 294 293 294 293 295 296 288 289 293 294 291 292 290 288 301 321 309 253 265 252 239 224 206 188 171 161 159 152 148 145 138 142 145 147 150 151 149 147 146 147